Time,TemperatureF,DewpointF,PressureIn,WindDirection,WindDirectionDegrees,WindSpeedMPH,WindSpeedGustMPH,Humidity,HourlyPrecipIn,Conditions,Clouds,dailyrainin,SoftwareType,DateUTC
2013-05-05 00:23:00,47.0,44.0,-100.00,NNW,330,7.0,18.0,90,0.02,,,0.45,,2013-05-05 04:23:00,
2013-05-05 00:33:00,47.0,44.0,-100.00,NNW,330,7.0,18.0,90,0.02,,,0.45,,2013-05-05 04:33:00,
2013-05-05 00:43:00,47.0,44.0,-100.00,NNW,330,7.0,18.0,90,0.02,,,0.45,,2013-05-05 04:43:00,
2013-05-05 00:52:00,47.0,44.0,-100.00,NNW,330,7.0,18.0,90,0.02,,,0.45,,2013-05-05 04:52:00,
2013-05-05 01:22:00,47.0,44.0,-100.00,WNW,302,7.0,21.0,89,0.06,,,0.51,,2013-05-05 05:22:00,
2013-05-05 01:32:00,47.0,44.0,-100.00,WNW,302,7.0,21.0,89,0.06,,,0.51,,2013-05-05 05:32:00,
2013-05-05 01:42:00,47.0,44.0,-100.00,WNW,302,7.0,21.0,89,0.06,,,0.51,,2013-05-05 05:42:00,
2013-05-05 01:52:00,47.0,44.0,-100.00,WNW,302,7.0,21.0,89,0.06,,,0.51,,2013-05-05 05:52:00,
2013-05-05 02:22:00,47.0,44.0,-100.00,ENE,77,7.0,24.0,89,0.05,,,0.55,,2013-05-05 06:22:00,
2013-05-05 02:32:00,47.0,44.0,-100.00,ENE,77,7.0,24.0,89,0.05,,,0.55,,2013-05-05 06:32:00,
2013-05-05 02:42:00,47.0,44.0,-100.00,ENE,77,7.0,24.0,89,0.05,,,0.55,,2013-05-05 06:42:00,
2013-05-05 02:52:00,47.0,44.0,-100.00,ENE,77,7.0,24.0,89,0.05,,,0.55,,2013-05-05 06:52:00,
2013-05-05 03:22:00,47.0,44.0,-100.00,NNW,347,6.0,22.0,90,0.03,,,0.57,,2013-05-05 07:22:00,
2013-05-05 03:32:00,47.0,44.0,-100.00,NNW,347,6.0,22.0,90,0.03,,,0.57,,2013-05-05 07:32:00,
2013-05-05 03:42:00,47.0,44.0,-100.00,NNW,347,6.0,22.0,90,0.03,,,0.57,,2013-05-05 07:42:00,
2013-05-05 03:52:00,47.0,44.0,-100.00,NNW,347,6.0,22.0,90,0.03,,,0.57,,2013-05-05 07:52:00,
2013-05-05 04:22:00,47.0,43.0,-100.00,NW,323,5.0,15.0,87,0.04,,,0.60,,2013-05-05 08:22:00,
2013-05-05 04:32:00,47.0,43.0,-100.00,NW,323,5.0,15.0,87,0.04,,,0.60,,2013-05-05 08:32:00,
2013-05-05 04:42:00,47.0,43.0,-100.00,NW,323,5.0,15.0,87,0.04,,,0.60,,2013-05-05 08:42:00,
2013-05-05 04:53:00,47.0,43.0,-100.00,NW,323,5.0,15.0,87,0.04,,,0.60,,2013-05-05 08:53:00,
2013-05-05 05:22:00,47.0,44.0,-100.00,NW,324,6.0,22.0,88,0.05,,,0.65,,2013-05-05 09:22:00,
2013-05-05 05:33:00,47.0,44.0,-100.00,NW,324,6.0,22.0,88,0.05,,,0.65,,2013-05-05 09:33:00,
2013-05-05 05:42:00,47.0,44.0,-100.00,NW,324,6.0,22.0,88,0.05,,,0.65,,2013-05-05 09:42:00,
2013-05-05 05:52:00,47.0,44.0,-100.00,NW,324,6.0,22.0,88,0.05,,,0.65,,2013-05-05 09:52:00,
2013-05-05 06:22:00,47.0,44.0,-100.00,NNE,21,7.0,20.0,89,0.09,,,0.74,,2013-05-05 10:22:00,
2013-05-05 06:32:00,47.0,44.0,-100.00,NNE,21,7.0,20.0,89,0.09,,,0.74,,2013-05-05 10:32:00,
2013-05-05 06:42:00,47.0,44.0,-100.00,NNE,21,7.0,20.0,89,0.09,,,0.74,,2013-05-05 10:42:00,
2013-05-05 06:52:00,47.0,44.0,-100.00,NNE,21,7.0,20.0,89,0.09,,,0.74,,2013-05-05 10:52:00,
2013-05-05 07:22:00,47.0,44.0,-100.00,ESE,121,7.0,19.0,88,0.04,,,0.78,,2013-05-05 11:22:00,
2013-05-05 07:32:00,47.0,44.0,-100.00,ESE,121,7.0,19.0,88,0.04,,,0.78,,2013-05-05 11:32:00,
2013-05-05 07:42:00,47.0,44.0,-100.00,ESE,121,7.0,19.0,88,0.04,,,0.78,,2013-05-05 11:42:00,
2013-05-05 07:52:00,47.0,44.0,-100.00,ESE,121,7.0,19.0,88,0.04,,,0.78,,2013-05-05 11:52:00,
2013-05-05 08:22:00,48.0,45.0,-100.00,North,353,6.0,16.0,88,0.04,,,0.82,,2013-05-05 12:22:00,
2013-05-05 08:32:00,48.0,45.0,-100.00,North,353,6.0,16.0,88,0.04,,,0.82,,2013-05-05 12:32:00,
2013-05-05 08:42:00,48.0,45.0,-100.00,North,353,6.0,16.0,88,0.04,,,0.82,,2013-05-05 12:42:00,
2013-05-05 08:52:00,48.0,45.0,-100.00,North,353,6.0,16.0,88,0.04,,,0.82,,2013-05-05 12:52:00,
2013-05-05 09:21:00,48.0,45.0,-100.00,NNW,343,6.0,22.0,88,0.11,,,0.93,,2013-05-05 13:21:00,
2013-05-05 09:32:00,48.0,45.0,-100.00,NNW,343,6.0,22.0,88,0.11,,,0.93,,2013-05-05 13:32:00,
2013-05-05 09:42:00,48.0,45.0,-100.00,NNW,343,6.0,22.0,88,0.11,,,0.93,,2013-05-05 13:42:00,
2013-05-05 09:52:00,48.0,45.0,-100.00,NNW,343,6.0,22.0,88,0.11,,,0.93,,2013-05-05 13:52:00,
2013-05-05 10:21:00,48.0,45.0,-100.00,NNE,13,4.0,16.0,89,0.07,,,1.00,,2013-05-05 14:21:00,
2013-05-05 10:32:00,48.0,45.0,-100.00,NNE,13,4.0,16.0,89,0.07,,,1.00,,2013-05-05 14:32:00,
2013-05-05 10:42:00,48.0,45.0,-100.00,NNE,13,4.0,16.0,89,0.07,,,1.00,,2013-05-05 14:42:00,
2013-05-05 10:52:00,48.0,45.0,-100.00,NNE,13,4.0,16.0,89,0.07,,,1.00,,2013-05-05 14:52:00,
2013-05-05 11:21:00,47.0,44.0,-100.00,NE,42,6.0,15.0,88,0.14,,,1.14,,2013-05-05 15:21:00,
2013-05-05 11:33:00,47.0,44.0,-100.00,NE,42,6.0,15.0,88,0.14,,,1.14,,2013-05-05 15:33:00,
2013-05-05 11:43:00,47.0,44.0,-100.00,NE,42,6.0,15.0,88,0.14,,,1.14,,2013-05-05 15:43:00,
2013-05-05 11:53:00,47.0,44.0,-100.00,NE,42,6.0,15.0,88,0.14,,,1.14,,2013-05-05 15:53:00,
2013-05-05 12:23:00,47.0,44.0,-100.00,South,173,3.0,18.0,88,0.08,,,1.22,,2013-05-05 16:23:00,
2013-05-05 12:32:00,47.0,44.0,-100.00,South,173,3.0,18.0,88,0.08,,,1.22,,2013-05-05 16:32:00,
2013-05-05 12:42:00,47.0,44.0,-100.00,South,173,3.0,18.0,88,0.08,,,1.22,,2013-05-05 16:42:00,
2013-05-05 12:52:00,47.0,44.0,-100.00,South,173,3.0,18.0,88,0.08,,,1.22,,2013-05-05 16:52:00,
2013-05-05 13:23:00,48.0,44.0,-100.00,NNW,328,4.0,14.0,87,0.04,,,1.26,,2013-05-05 17:23:00,
2013-05-05 13:32:00,48.0,44.0,-100.00,NNW,328,4.0,14.0,87,0.04,,,1.26,,2013-05-05 17:32:00,
2013-05-05 13:42:00,48.0,44.0,-100.00,NNW,328,4.0,14.0,87,0.04,,,1.26,,2013-05-05 17:42:00,
2013-05-05 13:52:00,48.0,44.0,-100.00,NNW,328,4.0,14.0,87,0.04,,,1.26,,2013-05-05 17:52:00,
2013-05-05 14:22:00,49.0,46.0,-100.00,ENE,61,4.0,10.0,89,0.04,,,-99.99,,2013-05-05 18:22:00,
2013-05-05 14:32:00,49.0,46.0,-100.00,ENE,61,4.0,10.0,89,0.04,,,-99.99,,2013-05-05 18:32:00,
2013-05-05 14:42:00,49.0,46.0,-100.00,ENE,61,4.0,10.0,89,0.04,,,-99.99,,2013-05-05 18:42:00,
2013-05-05 14:52:00,49.0,46.0,-100.00,ENE,61,4.0,10.0,89,0.04,,,-99.99,,2013-05-05 18:52:00,
2013-05-05 15:22:00,51.0,48.0,-100.00,North,358,4.0,14.0,89,0.03,,,1.33,,2013-05-05 19:22:00,
2013-05-05 15:32:00,51.0,48.0,-100.00,North,358,4.0,14.0,89,0.03,,,1.33,,2013-05-05 19:32:00,
2013-05-05 15:42:00,51.0,48.0,-100.00,North,358,4.0,14.0,89,0.03,,,1.33,,2013-05-05 19:42:00,
2013-05-05 15:52:00,51.0,48.0,-100.00,North,358,4.0,14.0,89,0.03,,,1.33,,2013-05-05 19:52:00,
2013-05-05 16:21:00,50.0,45.0,-100.00,SW,214,3.0,15.0,84,0.00,,,1.32,,2013-05-05 20:21:00,
2013-05-05 16:32:00,50.0,45.0,-100.00,SW,214,3.0,15.0,84,0.00,,,1.32,,2013-05-05 20:32:00,
2013-05-05 16:42:00,50.0,45.0,-100.00,SW,214,3.0,15.0,84,0.00,,,1.32,,2013-05-05 20:42:00,
2013-05-05 16:52:00,50.0,45.0,-100.00,SW,214,3.0,15.0,84,0.00,,,1.32,,2013-05-05 20:52:00,
2013-05-05 17:22:00,49.0,48.0,-100.00,WSW,251,1.0,7.0,96,0.06,,,1.36,,2013-05-05 21:22:00,
2013-05-05 17:33:00,49.0,48.0,-100.00,WSW,251,1.0,7.0,96,0.06,,,1.36,,2013-05-05 21:33:00,
2013-05-05 17:42:00,49.0,48.0,-100.00,WSW,251,1.0,7.0,96,0.06,,,1.36,,2013-05-05 21:42:00,
2013-05-05 17:53:00,49.0,48.0,-100.00,WSW,251,1.0,7.0,96,0.06,,,1.36,,2013-05-05 21:53:00,
2013-05-05 18:22:00,49.0,47.0,-100.00,North,1,3.0,8.0,92,0.03,,,1.36,,2013-05-05 22:22:00,
2013-05-05 18:33:00,49.0,47.0,-100.00,North,1,3.0,8.0,92,0.03,,,1.36,,2013-05-05 22:33:00,
2013-05-05 18:42:00,49.0,47.0,-100.00,North,1,3.0,8.0,92,0.03,,,1.36,,2013-05-05 22:42:00,
2013-05-05 18:52:00,49.0,47.0,-100.00,North,1,3.0,8.0,92,0.03,,,1.36,,2013-05-05 22:52:00,
2013-05-05 19:22:00,49.0,47.0,-100.00,ENE,78,3.0,6.0,93,0.00,,,1.34,,2013-05-05 23:22:00,
2013-05-05 19:32:00,49.0,47.0,-100.00,ENE,78,3.0,6.0,93,0.00,,,1.34,,2013-05-05 23:32:00,
2013-05-05 19:42:00,49.0,47.0,-100.00,ENE,78,3.0,6.0,93,0.00,,,1.34,,2013-05-05 23:42:00,
2013-05-05 19:52:00,49.0,47.0,-100.00,ENE,78,3.0,6.0,93,0.00,,,1.34,,2013-05-05 23:52:00,
2013-05-05 20:22:00,48.0,46.0,-100.00,ESE,118,3.0,11.0,92,0.03,,,1.28,,2013-05-06 00:22:00,
2013-05-05 20:32:00,48.0,46.0,-100.00,ESE,118,3.0,11.0,92,0.03,,,1.28,,2013-05-06 00:32:00,
2013-05-05 20:42:00,48.0,46.0,-100.00,ESE,118,3.0,11.0,92,0.03,,,1.28,,2013-05-06 00:42:00,
2013-05-05 20:51:00,48.0,46.0,-100.00,ESE,118,3.0,11.0,92,0.03,,,1.28,,2013-05-06 00:51:00,
2013-05-05 21:21:00,47.0,45.0,-100.00,ENE,65,2.0,5.0,94,0.00,,,1.14,,2013-05-06 01:21:00,
2013-05-05 21:32:00,47.0,45.0,-100.00,ENE,65,2.0,5.0,94,0.00,,,1.14,,2013-05-06 01:32:00,
2013-05-05 21:42:00,47.0,45.0,-100.00,ENE,65,2.0,5.0,94,0.00,,,1.14,,2013-05-06 01:42:00,
2013-05-05 21:52:00,47.0,45.0,-100.00,ENE,65,2.0,5.0,94,0.00,,,1.14,,2013-05-06 01:52:00,
2013-05-05 22:21:00,45.0,43.0,-100.00,WNW,288,2.0,8.0,93,0.00,,,1.06,,2013-05-06 02:21:00,
2013-05-05 22:32:00,45.0,43.0,-100.00,WNW,288,2.0,8.0,93,0.00,,,1.06,,2013-05-06 02:32:00,
2013-05-05 22:42:00,45.0,43.0,-100.00,WNW,288,2.0,8.0,93,0.00,,,1.06,,2013-05-06 02:42:00,
2013-05-05 22:51:00,45.0,43.0,-100.00,WNW,288,2.0,8.0,93,0.00,,,1.06,,2013-05-06 02:51:00,
2013-05-05 23:22:00,45.0,44.0,-100.00,NE,50,2.0,7.0,98,0.01,,,1.06,,2013-05-06 03:22:00,
2013-05-05 23:33:00,45.0,44.0,-100.00,NE,50,2.0,7.0,98,0.01,,,1.06,,2013-05-06 03:33:00,
2013-05-05 23:42:00,45.0,44.0,-100.00,NE,50,2.0,7.0,98,0.01,,,1.06,,2013-05-06 03:42:00,
2013-05-05 23:52:00,45.0,44.0,-100.00,NE,50,2.0,7.0,98,0.01,,,1.06,,2013-05-06 03:52:00,